Time,TemperatureF,DewpointF,PressureIn,WindDirection,WindDirectionDegrees,WindSpeedMPH,WindSpeedGustMPH,Humidity,HourlyPrecipIn,Conditions,Clouds,dailyrainin,SoftwareType,DateUTC
2016-07-28 00:03:00,75.7,70.2,29.88,ENE,72,4.0,4.0,83,0.00,,,0.00,meteobridge,2016-07-28 04:03:00,
2016-07-28 00:08:00,75.7,70.2,29.89,ENE,72,0.0,1.0,83,0.00,,,0.00,meteobridge,2016-07-28 04:08:00,
2016-07-28 00:13:00,75.6,70.0,29.88,ENE,72,2.0,2.0,83,0.00,,,0.00,meteobridge,2016-07-28 04:13:00,
2016-07-28 00:18:00,75.7,70.2,29.88,ENE,72,0.0,2.0,83,0.00,,,0.00,meteobridge,2016-07-28 04:18:00,
2016-07-28 00:23:00,75.6,70.0,29.88,ENE,72,2.0,2.0,83,0.00,,,0.00,meteobridge,2016-07-28 04:23:00,
2016-07-28 00:28:00,75.6,70.0,29.88,ENE,72,0.9,2.0,83,0.00,,,0.00,meteobridge,2016-07-28 04:28:00,
2016-07-28 00:33:00,75.6,70.0,29.88,ENE,72,2.0,2.0,83,0.00,,,0.00,meteobridge,2016-07-28 04:33:00,
2016-07-28 00:38:00,75.6,69.6,29.88,ENE,72,0.9,2.0,82,0.00,,,0.00,meteobridge,2016-07-28 04:38:00,
2016-07-28 00:43:00,75.6,69.6,29.88,ENE,72,2.0,3.0,82,0.00,,,0.00,meteobridge,2016-07-28 04:43:00,
2016-07-28 00:48:00,75.6,69.6,29.88,ENE,72,2.0,4.0,82,0.00,,,0.00,meteobridge,2016-07-28 04:48:00,
2016-07-28 00:53:00,75.7,69.4,29.88,ENE,72,0.0,2.0,81,0.00,,,0.00,meteobridge,2016-07-28 04:53:00,
2016-07-28 00:58:00,75.7,69.4,29.88,ENE,72,0.0,1.0,81,0.00,,,0.00,meteobridge,2016-07-28 04:58:00,
2016-07-28 01:04:00,75.7,69.4,29.88,ENE,72,0.0,0.0,81,0.00,,,0.00,meteobridge,2016-07-28 05:04:00,
2016-07-28 01:09:00,75.7,69.4,29.88,ENE,72,0.0,0.0,81,0.00,,,0.00,meteobridge,2016-07-28 05:09:00,
2016-07-28 01:14:00,75.7,69.4,29.88,ENE,72,0.0,0.0,81,0.00,,,0.00,meteobridge,2016-07-28 05:14:00,
2016-07-28 01:19:00,75.7,69.4,29.88,ENE,72,0.0,0.0,81,0.00,,,0.00,meteobridge,2016-07-28 05:19:00,
2016-07-28 01:24:00,75.6,69.6,29.88,ENE,72,0.0,0.0,82,0.00,,,0.00,meteobridge,2016-07-28 05:24:00,
2016-07-28 01:29:00,75.6,70.0,29.88,ENE,72,0.0,0.0,83,0.00,,,0.00,meteobridge,2016-07-28 05:29:00,
2016-07-28 01:34:00,75.6,70.7,29.88,ENE,72,0.0,0.0,85,0.00,,,0.00,meteobridge,2016-07-28 05:34:00,
2016-07-28 01:39:00,75.4,70.5,29.88,ENE,72,0.0,0.0,85,0.00,,,0.00,meteobridge,2016-07-28 05:39:00,
2016-07-28 01:44:00,75.4,70.5,29.88,ENE,72,0.0,0.0,85,0.00,,,0.00,meteobridge,2016-07-28 05:44:00,
2016-07-28 01:49:00,75.4,70.9,29.87,ENE,72,0.0,0.0,86,0.00,,,0.00,meteobridge,2016-07-28 05:49:00,
2016-07-28 01:54:00,75.0,70.2,29.87,ENE,72,0.0,0.0,85,0.00,,,0.00,meteobridge,2016-07-28 05:54:00,
2016-07-28 01:59:00,74.8,70.3,29.87,ENE,72,0.0,0.0,86,0.00,,,0.00,meteobridge,2016-07-28 05:59:00,
2016-07-28 02:04:00,74.1,69.3,29.87,North,349,4.0,6.0,85,0.00,,,0.00,meteobridge,2016-07-28 06:04:00,
2016-07-28 02:09:00,73.9,69.1,29.86,North,355,4.0,5.0,85,0.00,,,0.00,meteobridge,2016-07-28 06:09:00,
2016-07-28 02:14:00,73.9,69.1,29.86,NNE,13,2.0,4.0,85,0.00,,,0.00,meteobridge,2016-07-28 06:14:00,
2016-07-28 02:19:00,73.9,69.1,29.86,NNE,13,2.0,3.0,85,0.00,,,0.00,meteobridge,2016-07-28 06:19:00,
2016-07-28 02:24:00,73.9,69.1,29.86,NNE,13,2.0,3.0,85,0.00,,,0.00,meteobridge,2016-07-28 06:24:00,
2016-07-28 02:29:00,74.1,69.3,29.86,North,9,0.9,5.0,85,0.00,,,0.00,meteobridge,2016-07-28 06:29:00,
2016-07-28 02:34:00,73.9,69.1,29.86,East,89,2.0,4.0,85,0.00,,,0.00,meteobridge,2016-07-28 06:34:00,
2016-07-28 02:39:00,73.8,69.3,29.85,East,89,4.0,4.0,86,0.00,,,0.00,meteobridge,2016-07-28 06:39:00,
2016-07-28 02:44:00,73.8,68.9,29.85,East,88,2.0,4.0,85,0.00,,,0.00,meteobridge,2016-07-28 06:44:00,
2016-07-28 02:49:00,73.8,68.9,29.85,ESE,109,4.0,5.0,85,0.00,,,0.00,meteobridge,2016-07-28 06:49:00,
2016-07-28 02:54:00,73.9,69.4,29.85,East,101,0.9,2.0,86,0.00,,,0.00,meteobridge,2016-07-28 06:54:00,
2016-07-28 02:59:00,73.9,69.1,29.85,East,101,0.0,1.0,85,0.00,,,0.00,meteobridge,2016-07-28 06:59:00,
2016-07-28 03:04:00,73.9,69.1,29.85,East,101,0.0,1.0,85,0.00,,,0.00,meteobridge,2016-07-28 07:04:00,
2016-07-28 03:09:00,73.9,69.1,29.85,East,101,0.9,2.0,85,0.00,,,0.00,meteobridge,2016-07-28 07:09:00,
2016-07-28 03:14:00,73.9,69.1,29.85,East,101,0.0,0.0,85,0.00,,,0.00,meteobridge,2016-07-28 07:14:00,
2016-07-28 03:19:00,73.9,69.4,29.85,East,101,0.0,0.0,86,0.00,,,0.00,meteobridge,2016-07-28 07:19:00,
2016-07-28 03:24:00,73.9,69.4,29.85,East,101,0.0,0.0,86,0.00,,,0.00,meteobridge,2016-07-28 07:24:00,
2016-07-28 03:29:00,73.8,68.9,29.84,East,101,0.0,2.0,85,0.00,,,0.00,meteobridge,2016-07-28 07:29:00,
2016-07-28 03:34:00,73.8,69.3,29.84,East,101,0.0,1.0,86,0.00,,,0.00,meteobridge,2016-07-28 07:34:00,
2016-07-28 03:40:00,73.8,69.3,29.84,East,101,0.0,2.0,86,0.00,,,0.00,meteobridge,2016-07-28 07:40:00,
2016-07-28 03:45:00,73.8,69.3,29.83,East,101,0.0,0.0,86,0.00,,,0.00,meteobridge,2016-07-28 07:45:00,
2016-07-28 03:50:00,73.8,69.3,29.83,East,101,0.0,2.0,86,0.00,,,0.00,meteobridge,2016-07-28 07:50:00,
2016-07-28 03:55:00,73.6,69.1,29.83,East,101,0.0,0.0,86,0.00,,,0.00,meteobridge,2016-07-28 07:55:00,
2016-07-28 04:00:00,73.6,68.7,29.83,East,101,0.0,1.0,85,0.00,,,0.00,meteobridge,2016-07-28 08:00:00,
2016-07-28 04:05:00,73.6,69.1,29.83,East,101,0.0,0.0,86,0.00,,,0.00,meteobridge,2016-07-28 08:05:00,
2016-07-28 04:10:00,73.8,69.6,29.82,ESE,102,0.0,0.0,87,0.00,,,0.00,meteobridge,2016-07-28 08:10:00,
2016-07-28 04:15:00,73.6,69.4,29.82,East,101,0.9,2.0,87,0.00,,,0.00,meteobridge,2016-07-28 08:15:00,
2016-07-28 04:20:00,73.4,69.3,29.82,East,101,2.0,2.0,87,0.00,,,0.00,meteobridge,2016-07-28 08:20:00,
2016-07-28 04:25:00,73.2,69.1,29.82,East,101,0.0,1.0,87,0.00,,,0.00,meteobridge,2016-07-28 08:25:00,
2016-07-28 04:30:00,73.2,69.1,29.82,East,101,2.0,2.0,87,0.00,,,0.00,meteobridge,2016-07-28 08:30:00,
2016-07-28 04:35:00,73.0,68.5,29.82,East,101,0.9,2.0,86,0.00,,,0.00,meteobridge,2016-07-28 08:35:00,
2016-07-28 04:40:00,73.0,68.5,29.82,East,101,0.0,1.0,86,0.00,,,0.00,meteobridge,2016-07-28 08:40:00,
2016-07-28 04:45:00,73.0,68.5,29.82,East,101,0.0,0.0,86,0.00,,,0.00,meteobridge,2016-07-28 08:45:00,
2016-07-28 04:50:00,72.9,68.7,29.82,East,101,0.0,1.0,87,0.00,,,0.00,meteobridge,2016-07-28 08:50:00,
2016-07-28 04:55:00,73.0,69.3,29.81,East,101,0.9,2.0,88,0.00,,,0.00,meteobridge,2016-07-28 08:55:00,
2016-07-28 05:00:00,72.9,69.1,29.82,East,101,0.0,0.0,88,0.00,,,0.00,meteobridge,2016-07-28 09:00:00,
2016-07-28 05:05:00,72.7,69.3,29.82,East,101,0.0,0.0,89,0.00,,,0.00,meteobridge,2016-07-28 09:05:00,
2016-07-28 05:10:00,72.7,69.6,29.82,East,101,1.0,1.0,90,0.00,,,0.00,meteobridge,2016-07-28 09:10:00,
2016-07-28 05:15:00,72.5,69.4,29.81,East,101,0.9,2.0,90,0.00,,,0.00,meteobridge,2016-07-28 09:15:00,
2016-07-28 05:20:00,72.3,69.6,29.81,East,101,0.0,0.0,91,0.00,,,0.00,meteobridge,2016-07-28 09:20:00,
2016-07-28 05:25:00,72.1,69.4,29.81,East,101,0.0,1.0,91,0.00,,,0.00,meteobridge,2016-07-28 09:25:00,
2016-07-28 05:30:00,72.0,69.3,29.82,East,101,0.0,1.0,91,0.00,,,0.00,meteobridge,2016-07-28 09:30:00,
2016-07-28 05:35:00,71.8,69.1,29.82,East,101,0.0,0.0,91,0.00,,,0.00,meteobridge,2016-07-28 09:35:00,
2016-07-28 05:40:00,71.6,69.1,29.82,East,101,0.0,0.0,92,0.00,,,0.00,meteobridge,2016-07-28 09:40:00,
2016-07-28 05:45:00,71.8,69.3,29.82,East,101,0.0,0.0,92,0.00,,,0.00,meteobridge,2016-07-28 09:45:00,
2016-07-28 05:50:00,71.8,69.3,29.83,East,101,0.0,0.0,92,0.00,,,0.00,meteobridge,2016-07-28 09:50:00,
2016-07-28 05:56:00,71.6,69.1,29.83,East,101,0.0,0.0,92,0.00,,,0.00,meteobridge,2016-07-28 09:56:00,
2016-07-28 06:01:00,71.6,69.1,29.83,East,101,0.0,0.0,92,0.00,,,0.00,meteobridge,2016-07-28 10:01:00,
2016-07-28 06:06:00,71.8,69.3,29.83,South,173,0.9,1.0,92,0.00,,,0.00,meteobridge,2016-07-28 10:06:00,
2016-07-28 06:11:00,71.8,69.1,29.84,SW,223,2.9,5.0,91,0.00,,,0.00,meteobridge,2016-07-28 10:11:00,
2016-07-28 06:16:00,71.6,68.9,29.84,SW,223,2.0,4.0,91,0.00,,,0.00,meteobridge,2016-07-28 10:16:00,
2016-07-28 06:21:00,71.6,68.9,29.84,SW,223,0.0,0.0,91,0.00,,,0.00,meteobridge,2016-07-28 10:21:00,
2016-07-28 06:26:00,71.4,68.7,29.84,SW,223,0.0,1.0,91,0.00,,,0.00,meteobridge,2016-07-28 10:26:00,
2016-07-28 06:31:00,71.6,68.9,29.84,SW,223,0.0,1.0,91,0.00,,,0.00,meteobridge,2016-07-28 10:31:00,
2016-07-28 06:36:00,71.8,68.7,29.84,SW,223,0.0,0.0,90,0.00,,,0.00,meteobridge,2016-07-28 10:36:00,
2016-07-28 06:41:00,71.8,68.7,29.84,SW,223,0.0,2.0,90,0.00,,,0.00,meteobridge,2016-07-28 10:41:00,
2016-07-28 06:46:00,71.8,68.7,29.84,SW,223,0.0,1.0,90,0.00,,,0.00,meteobridge,2016-07-28 10:46:00,
2016-07-28 06:51:00,71.8,68.7,29.84,SW,223,0.0,0.0,90,0.00,,,0.00,meteobridge,2016-07-28 10:51:00,
2016-07-28 06:56:00,71.4,68.4,29.84,SW,223,0.0,0.0,90,0.00,,,0.00,meteobridge,2016-07-28 10:56:00,
2016-07-28 07:01:00,71.2,68.5,29.84,SW,223,0.0,0.0,91,0.00,,,0.00,meteobridge,2016-07-28 11:01:00,
2016-07-28 07:06:00,71.2,68.5,29.84,SW,223,0.0,0.0,91,0.00,,,0.00,meteobridge,2016-07-28 11:06:00,
2016-07-28 07:11:00,71.2,68.5,29.84,SW,223,0.9,1.0,91,0.00,,,0.00,meteobridge,2016-07-28 11:11:00,
2016-07-28 07:16:00,71.2,68.5,29.85,SW,223,0.9,4.0,91,0.00,,,0.00,meteobridge,2016-07-28 11:16:00,
2016-07-28 07:21:00,71.2,68.2,29.84,SW,223,0.0,2.0,90,0.00,,,0.00,meteobridge,2016-07-28 11:21:00,
2016-07-28 07:26:00,71.4,68.4,29.85,SW,223,0.0,0.0,90,0.00,,,0.00,meteobridge,2016-07-28 11:26:00,
2016-07-28 07:31:00,71.4,68.4,29.85,SW,223,0.0,0.0,90,0.00,,,0.00,meteobridge,2016-07-28 11:31:00,
2016-07-28 07:36:00,71.6,68.5,29.85,SW,223,0.0,1.0,90,0.00,,,0.00,meteobridge,2016-07-28 11:36:00,
2016-07-28 07:41:00,71.6,68.5,29.85,SW,223,0.0,1.0,90,0.00,,,0.00,meteobridge,2016-07-28 11:41:00,
2016-07-28 07:46:00,71.6,68.5,29.85,SW,223,2.0,2.0,90,0.00,,,0.00,meteobridge,2016-07-28 11:46:00,
2016-07-28 07:51:00,71.4,68.4,29.85,SW,223,0.0,1.0,90,0.00,,,0.00,meteobridge,2016-07-28 11:51:00,
2016-07-28 07:56:00,71.4,68.7,29.85,SW,223,0.0,0.0,91,0.00,,,0.00,meteobridge,2016-07-28 11:56:00,
2016-07-28 08:01:00,71.6,68.9,29.85,SW,223,0.9,2.0,91,0.00,,,0.00,meteobridge,2016-07-28 12:01:00,
2016-07-28 08:06:00,72.0,68.9,29.85,SW,223,0.9,2.0,90,0.00,,,0.00,meteobridge,2016-07-28 12:06:00,
2016-07-28 08:11:00,72.0,68.9,29.85,SW,223,2.0,3.0,90,0.00,,,0.00,meteobridge,2016-07-28 12:11:00,
2016-07-28 08:16:00,72.3,69.3,29.85,SW,223,0.0,1.0,90,0.00,,,0.00,meteobridge,2016-07-28 12:16:00,
2016-07-28 08:21:00,72.5,69.4,29.85,SW,223,0.9,2.0,90,0.00,,,0.00,meteobridge,2016-07-28 12:21:00,
2016-07-28 08:26:00,72.7,69.6,29.85,SW,223,0.9,2.0,90,0.00,,,0.00,meteobridge,2016-07-28 12:26:00,
2016-07-28 08:31:00,72.7,69.6,29.85,West,263,2.0,4.0,90,0.00,,,0.00,meteobridge,2016-07-28 12:31:00,
2016-07-28 08:36:00,72.7,69.6,29.85,West,263,2.0,4.0,90,0.00,,,0.00,meteobridge,2016-07-28 12:36:00,
2016-07-28 08:41:00,72.7,69.6,29.85,West,263,0.0,2.0,90,0.00,,,0.00,meteobridge,2016-07-28 12:41:00,
2016-07-28 08:46:00,72.9,69.8,29.85,West,263,0.0,4.0,90,0.00,,,0.00,meteobridge,2016-07-28 12:46:00,
2016-07-28 08:51:00,72.9,69.8,29.85,West,263,0.0,0.0,90,0.00,,,0.00,meteobridge,2016-07-28 12:51:00,
2016-07-28 08:56:00,73.0,70.0,29.85,West,263,2.9,3.0,90,0.00,,,0.00,meteobridge,2016-07-28 12:56:00,
2016-07-28 09:01:00,73.2,70.2,29.85,West,263,0.0,2.0,90,0.00,,,0.00,meteobridge,2016-07-28 13:01:00,
2016-07-28 09:06:00,73.6,70.5,29.85,West,263,2.0,3.0,90,0.00,,,0.00,meteobridge,2016-07-28 13:06:00,
2016-07-28 09:11:00,73.8,70.3,29.85,West,263,2.0,3.0,89,0.00,,,0.00,meteobridge,2016-07-28 13:11:00,
2016-07-28 09:16:00,74.1,70.7,29.85,West,265,0.9,4.0,89,0.00,,,0.00,meteobridge,2016-07-28 13:16:00,
2016-07-28 09:21:00,74.5,70.7,29.85,West,265,2.9,4.0,88,0.00,,,0.00,meteobridge,2016-07-28 13:21:00,
2016-07-28 09:26:00,74.5,70.7,29.85,West,265,4.9,5.0,88,0.00,,,0.00,meteobridge,2016-07-28 13:26:00,
2016-07-28 09:31:00,74.7,70.9,29.85,West,265,4.0,4.0,88,0.00,,,0.00,meteobridge,2016-07-28 13:31:00,
2016-07-28 09:36:00,74.7,70.9,29.85,West,265,0.9,5.0,88,0.00,,,0.00,meteobridge,2016-07-28 13:36:00,
2016-07-28 09:41:00,74.8,71.1,29.85,West,265,2.9,4.0,88,0.00,,,0.00,meteobridge,2016-07-28 13:41:00,
2016-07-28 09:46:00,74.8,71.1,29.84,West,260,4.0,6.0,88,0.00,,,0.00,meteobridge,2016-07-28 13:46:00,
2016-07-28 09:52:00,75.0,71.2,29.84,West,269,0.9,5.0,88,0.00,,,0.00,meteobridge,2016-07-28 13:52:00,
2016-07-28 09:56:00,75.2,71.4,29.84,NW,320,4.0,5.0,88,0.00,,,0.00,meteobridge,2016-07-28 13:56:00,
2016-07-28 10:01:00,75.2,71.4,29.84,NNW,327,2.0,5.0,88,0.00,,,0.00,meteobridge,2016-07-28 14:01:00,
2016-07-28 10:06:00,75.4,72.0,29.84,West,281,0.9,5.0,89,0.00,,,0.00,meteobridge,2016-07-28 14:06:00,
2016-07-28 10:11:00,75.4,71.6,29.84,NW,319,4.9,7.0,88,0.00,,,0.00,meteobridge,2016-07-28 14:11:00,
2016-07-28 10:17:00,75.6,71.8,29.84,NNW,329,4.9,5.0,88,0.00,,,0.00,meteobridge,2016-07-28 14:17:00,
2016-07-28 10:22:00,75.7,72.3,29.84,WNW,287,4.0,5.0,89,0.00,,,0.00,meteobridge,2016-07-28 14:22:00,
2016-07-28 10:27:00,76.3,72.5,29.84,West,271,4.9,6.0,88,0.00,,,0.00,meteobridge,2016-07-28 14:27:00,
2016-07-28 10:32:00,76.3,72.1,29.84,West,263,4.0,5.0,87,0.00,,,0.00,meteobridge,2016-07-28 14:32:00,
2016-07-28 10:37:00,76.6,72.1,29.84,West,267,4.0,7.0,86,0.00,,,0.00,meteobridge,2016-07-28 14:37:00,
2016-07-28 10:42:00,77.2,72.3,29.84,West,275,2.0,5.0,85,0.00,,,0.00,meteobridge,2016-07-28 14:42:00,
2016-07-28 10:47:00,77.4,72.5,29.84,West,275,4.9,6.0,85,0.00,,,0.00,meteobridge,2016-07-28 14:47:00,
2016-07-28 10:52:00,77.9,72.0,29.84,WSW,246,6.9,7.0,82,0.00,,,0.00,meteobridge,2016-07-28 14:52:00,
2016-07-28 10:57:00,78.3,72.3,29.84,WSW,257,2.0,6.0,82,0.00,,,0.00,meteobridge,2016-07-28 14:57:00,
2016-07-28 11:02:00,79.0,72.7,29.84,NW,308,4.0,5.0,81,0.00,,,0.00,meteobridge,2016-07-28 15:02:00,
2016-07-28 11:07:00,78.6,72.7,29.84,NW,313,4.0,4.0,82,0.00,,,0.00,meteobridge,2016-07-28 15:07:00,
2016-07-28 11:12:00,78.3,72.3,29.84,WSW,244,2.9,6.0,82,0.00,,,0.00,meteobridge,2016-07-28 15:12:00,
2016-07-28 11:17:00,78.3,72.0,29.84,WSW,254,4.0,6.0,81,0.00,,,0.00,meteobridge,2016-07-28 15:17:00,
2016-07-28 11:22:00,78.8,72.1,29.84,WSW,254,0.9,5.0,80,0.00,,,0.00,meteobridge,2016-07-28 15:22:00,
2016-07-28 11:27:00,79.2,72.5,29.84,West,265,6.0,7.0,80,0.00,,,0.00,meteobridge,2016-07-28 15:27:00,
2016-07-28 11:32:00,79.0,72.3,29.84,WSW,249,6.0,6.0,80,0.00,,,0.00,meteobridge,2016-07-28 15:32:00,
2016-07-28 11:37:00,79.2,72.5,29.83,South,188,0.9,6.0,80,0.00,,,0.00,meteobridge,2016-07-28 15:37:00,
2016-07-28 11:42:00,79.5,72.1,29.83,West,259,4.0,8.0,78,0.00,,,0.00,meteobridge,2016-07-28 15:42:00,
2016-07-28 11:47:00,79.5,72.1,29.84,WSW,257,2.0,5.0,78,0.00,,,0.00,meteobridge,2016-07-28 15:47:00,
2016-07-28 11:52:00,79.9,72.0,29.83,West,263,4.0,5.0,77,0.00,,,0.00,meteobridge,2016-07-28 15:52:00,
2016-07-28 11:57:00,80.4,72.1,29.83,WSW,255,2.0,6.0,76,0.00,,,0.00,meteobridge,2016-07-28 15:57:00,
2016-07-28 12:02:00,81.1,73.2,29.83,West,266,2.0,6.0,77,0.00,,,0.00,meteobridge,2016-07-28 16:02:00,
2016-07-28 12:07:00,81.7,72.5,29.83,WNW,283,4.0,7.0,74,0.00,,,0.00,meteobridge,2016-07-28 16:07:00,
2016-07-28 12:12:00,81.1,71.2,29.83,NW,322,4.9,7.0,72,0.00,,,0.00,meteobridge,2016-07-28 16:12:00,
2016-07-28 12:17:00,80.8,70.9,29.83,NNW,348,0.9,4.0,72,0.00,,,0.00,meteobridge,2016-07-28 16:17:00,
2016-07-28 12:22:00,81.3,71.4,29.83,WSW,252,4.9,6.0,72,0.00,,,0.00,meteobridge,2016-07-28 16:22:00,
2016-07-28 12:27:00,82.6,72.1,29.83,NNW,344,6.0,6.0,71,0.00,,,0.00,meteobridge,2016-07-28 16:27:00,
2016-07-28 12:32:00,82.0,72.1,29.83,NNW,338,4.0,7.0,72,0.00,,,0.00,meteobridge,2016-07-28 16:32:00,
2016-07-28 12:37:00,81.3,71.8,29.83,North,351,4.0,5.0,73,0.00,,,0.00,meteobridge,2016-07-28 16:37:00,
2016-07-28 12:42:00,81.9,72.3,29.83,West,277,4.9,7.0,73,0.00,,,0.00,meteobridge,2016-07-28 16:42:00,
2016-07-28 12:47:00,82.0,71.8,29.82,WSW,254,4.9,6.0,71,0.00,,,0.00,meteobridge,2016-07-28 16:47:00,
2016-07-28 12:52:00,82.4,72.5,29.82,SSE,166,0.9,7.0,72,0.00,,,0.00,meteobridge,2016-07-28 16:52:00,
2016-07-28 12:57:00,83.1,72.3,29.82,NE,55,2.0,5.0,70,0.00,,,0.00,meteobridge,2016-07-28 16:57:00,
2016-07-28 13:02:00,83.7,72.0,29.82,West,264,2.0,5.0,68,0.00,,,0.00,meteobridge,2016-07-28 17:02:00,
2016-07-28 13:07:00,83.8,72.1,29.82,WNW,291,4.0,7.0,68,0.00,,,0.00,meteobridge,2016-07-28 17:07:00,
2016-07-28 13:13:00,83.5,71.8,29.82,NNE,15,2.0,6.0,68,0.00,,,0.00,meteobridge,2016-07-28 17:13:00,
2016-07-28 13:18:00,82.9,71.2,29.82,NNW,343,2.0,7.0,68,0.00,,,0.00,meteobridge,2016-07-28 17:18:00,
2016-07-28 13:23:00,83.1,71.4,29.81,NNE,25,0.9,3.0,68,0.00,,,0.00,meteobridge,2016-07-28 17:23:00,
2016-07-28 13:28:00,83.5,70.9,29.81,NE,42,2.9,6.0,66,0.00,,,0.00,meteobridge,2016-07-28 17:28:00,
2016-07-28 13:33:00,83.8,71.8,29.81,NNE,20,0.9,4.0,67,0.00,,,0.00,meteobridge,2016-07-28 17:33:00,
2016-07-28 13:38:00,84.0,71.4,29.81,NNW,340,4.9,6.0,66,0.00,,,0.00,meteobridge,2016-07-28 17:38:00,